Dewpoint
51 38 31 28 16 9 8 5 11 25 27 49 54 50 43 52 45 43 63 65 65 62 61 65 68 68 68 67 67 66 65 64 64 64 63 62 63 63 62 63 63 64 63 62 62 62 62 60 61
33 29 29 20 8 5 4 9 16 31 40 48 52 53 51 53 56 59 63 65 65 63 61 60 68 67 67 66 66 65 64 64 64 63 63 63 63 63 63 63 64 64 64 63 61 62 62 62 63
34 34 23 15 6 3 4 14 26 36 44 47 47 55 54 55 58 60 63 66 65 64 62 61 67 67 67 66 65 65 64 64 64 63 64 63 63 63 63 62 62 62 62 62 62 63 64 63 63
30 29 20 9 5 6 6 22 40 41 44 46 49 51 57 62 63 62 65 67 66 64 62 66 67 66 66 66 65 64 63 63 63 64 64 63 63 63 63 62 61 60 60 59 61 62 62 62 61
26 21 13 8 7 5 12 28 42 41 44 46 49 50 54 61 64 65 65 66 66 64 64 65 66 66 66 65 64 64 64 63 63 63 63 63 64 64 63 62 62 61 60 59 59 60 61 61 61
22 18 10 5 3 11 23 39 44 44 46 49 49 50 56 61 61 62 65 66 65 65 64 65 65 66 65 65 64 64 64 64 63 64 63 64 64 64 63 63 63 62 60 59 61 60 60 60 59
21 14 8 7 17 21 36 44 43 44 45 48 52 49 57 58 60 61 62 63 64 66 66 65 64 63 64 64 64 64 64 64 64 64 64 64 63 62 61 61 61 61 60 59 60 60 60 59 58
22 18 10 15 16 22 38 43 46 45 46 52 53 49 53 57 59 60 61 60 61 63 64 62 61 60 58 62 65 65 65 65 65 64 63 62 61 60 60 59 60 61 62 60 59 60 60 57 56
23 13 10 16 19 22 37 39 46 49 50 52 54 54 57 58 59 58 58 57 58 59 60 60 58 57 56 56 63 64 64 64 63 62 60 55 49 49 51 58 61 60 61 59 58 57 56 54 53
21 13 11 16 16 19 35 39 44 46 48 51 55 57 58 58 57 57 56 55 55 56 57 58 56 55 56 55 58 61 60 57 57 54 51 50 52 52 51 58 58 58 57 56 53 48 46 45 43
20 15 17 17 20 22 33 39 43 44 44 47 52 55 56 56 55 55 55 54 54 55 56 57 57 58 57 55 57 59 58 59 58 59 56 55 55 55 54 54 50 49 49 45 44 43 43 44 42
19 20 20 20 29 33 35 40 42 45 50 51 55 56 55 55 55 53 53 53 53 54 54 54 56 55 56 57 56 57 55 56 56 56 57 56 53 54 53 51 50 48 47 47 45 45 45 43 42
21 21 22 28 29 39 40 39 42 48 52 56 56 56 55 54 54 54 53 53 51 49 51 53 55 55 56 57 51 53 54 53 52 53 50 50 51 54 53 51 49 47 47 47 45 44 43 42 41
23 26 34 33 38 41 40 42 43 49 52 53 53 54 54 54 54 54 52 52 50 48 50 53 52 52 51 50 53 51 53 51 52 53 54 56 54 55 52 51 49 47 47 46 45 43 41 39 39
25 31 29 34 38 39 39 36 41 47 50 51 49 49 53 53 54 54 54 53 52 52 53 53 52 52 51 52 52 50 51 52 51 55 59 58 56 55 53 50 48 47 47 46 44 42 41 39 35
22 25 25 32 35 37 38 31 45 45 45 45 46 48 49 52 53 54 54 51 52 52 52 52 53 55 57 58 54 50 53 53 53 57 58 58 55 54 52 50 48 47 46 44 42 40 38 34 30
19 16 19 29 32 35 35 29 43 46 42 44 42 42 46 49 49 52 50 47 48 49 51 50 53 55 58 58 54 54 55 58 57 60 59 56 54 52 51 49 48 47 44 43 41 38 34 30 28
15 16 19 25 32 34 31 27 42 47 44 43 43 41 42 45 46 49 51 49 49 50 52 52 55 57 59 58 56 52 57 59 60 59 58 56 53 51 51 49 48 45 42 41 39 36 33 29 28
19 18 17 19 25 27 23 24 36 45 46 45 45 45 42 43 45 48 49 50 50 51 53 53 55 57 60 57 52 52 55 57 58 58 57 56 53 51 49 47 46 43 41 40 39 35 31 31 32
23 18 17 20 22 24 22 21 29 42 46 47 46 46 47 46 44 49 51 50 50 51 53 54 55 57 59 56 52 53 56 57 56 55 55 54 52 50 47 46 44 43 42 41 38 32 32 33 33
23 18 19 21 21 23 21 20 28 35 41 45 46 45 45 45 47 49 51 52 51 50 52 53 55 57 59 57 54 54 57 57 54 52 52 51 50 48 46 46 44 43 40 38 35 34 35 35 35
19 22 23 22 19 14 21 11 21 28 35 39 42 43 45 44 45 47 51 52 53 52 53 54 54 56 58 58 54 53 53 54 54 52 50 49 48 47 45 45 44 41 36 34 33 37 37 36 35
20 26 25 23 21 21 20 13 17 26 28 32 38 41 42 43 44 45 47 51 52 52 53 55 55 56 58 58 57 56 55 55 55 52 49 49 49 47 45 43 41 38 35 34 36 38 37 37 32
27 25 24 26 22 17 18 18 14 18 18 21 28 37 41 42 44 45 47 49 51 53 54 56 56 56 58 59 59 58 56 56 54 51 49 48 47 45 42 39 39 37 34 37 41 39 39 35 32
25 21 17 15 16 15 24 21 16 18 19 22 25 27 36 41 43 44 46 48 50 52 56 57 57 57 59 59 59 58 57 57 54 52 49 46 43 42 41 38 37 36 36 41 39 40 36 35 32
22 21 18 14 12 11 25 15 15 21 25 28 31 30 31 37 41 43 44 46 48 52 56 57 58 57 59 58 58 59 58 57 55 53 48 43 43 42 41 38 36 35 40 39 39 35 38 35 33
24 21 23 24 29 19 16 18 19 20 23 27 29 34 32 32 33 39 42 44 47 50 55 57 57 57 58 57 54 57 57 56 54 52 47 44 44 42 39 38 36 39 37 38 35 36 34 33 36
27 26 21 23 18 15 15 16 13 16 17 21 22 24 32 37 36 37 39 42 46 48 53 56 57 56 57 54 56 56 56 56 55 53 48 47 46 43 39 38 36 38 37 35 35 33 32 35 35
27 24 25 24 23 16 14 15 19 18 18 20 23 27 29 32 39 41 43 45 47 49 52 54 56 56 56 54 56 57 57 56 56 55 51 49 47 43 39 38 36 35 35 32 33 30 33 32 31
23 20 23 20 18 23 24 18 20 21 25 24 26 26 30 34 37 43 46 49 51 52 52 53 55 55 55 56 57 57 57 57 55 53 51 50 46 43 39 38 35 35 31 29 30 31 27 32 33
Wind_Speed
6 4 5 7 10 8 14 8 4 2 6 3 2 6 5 9 3 3 3 7 18 25 26 26 23 23 25 26 25 25 25 26 26 25 24 23 22 22 20 19 17 17 18 19 21 22 22 22 22
1 2 6 4 11 13 14 3 7 3 4 2 1 2 5 5 3 6 5 5 23 23 26 25 21 23 23 25 24 24 24 24 24 24 24 23 22 21 20 18 17 18 20 22 22 22 22 20 20
2 4 9 6 9 14 1 3 3 3 3 5 2 4 4 5 2 1 6 9 23 23 27 23 20 23 23 23 24 24 24 23 24 24 25 24 22 20 20 19 18 19 20 22 21 21 21 19 19
3 6 5 11 10 6 8 4 6 5 3 3 4 10 7 4 8 3 14 18 19 21 20 24 21 22 22 22 23 24 25 23 24 22 26 23 22 20 19 19 18 19 20 20 19 20 20 18 18
3 4 9 7 6 4 4 5 5 3 2 2 4 7 8 4 10 9 11 21 19 20 21 26 23 22 22 22 24 22 22 24 23 21 24 23 21 19 17 18 18 18 18 19 18 19 18 17 15
6 4 9 5 3 1 4 4 4 2 1 3 3 5 4 7 8 9 12 8 15 16 20 22 23 22 22 21 20 23 20 23 22 22 22 21 19 19 17 17 16 16 16 17 18 18 17 16 14
8 8 4 2 2 4 5 4 3 3 3 4 1 1 3 8 8 9 13 11 12 11 15 21 18 18 23 19 14 19 19 20 19 21 19 19 20 19 18 17 16 15 16 17 18 18 18 15 14
5 5 2 1 6 7 7 1 1 2 2 1 1 3 5 4 9 13 14 14 12 15 14 24 22 18 14 17 14 16 18 17 18 20 16 20 20 18 18 17 15 14 17 18 19 18 17 16 14
4 7 1 2 6 9 3 3 1 1 3 3 3 4 11 13 12 16 16 15 16 13 16 20 26 20 18 15 13 18 21 14 17 18 18 20 18 17 17 18 15 17 18 19 18 18 17 16 13
7 5 2 3 6 9 4 3 3 4 5 3 6 13 16 13 11 13 13 14 14 16 16 21 22 25 14 9 14 13 16 15 13 15 15 11 13 10 16 15 17 18 19 18 16 16 12 5 6
1 5 5 5 6 7 5 3 2 2 5 0 10 11 13 14 13 15 15 16 16 19 16 23 26 17 19 14 12 11 12 12 10 11 10 11 11 12 13 14 14 15 15 13 13 9 6 7 6
8 6 8 8 5 4 4 3 2 4 5 1 18 15 15 15 14 16 18 18 18 19 21 19 19 19 18 14 12 12 12 10 10 10 10 10 10 9 10 9 11 11 8 10 9 8 9 8 8
9 9 8 6 3 1 1 2 3 5 10 17 15 13 14 14 16 16 17 18 18 21 21 16 12 12 11 11 12 8 6 9 11 12 13 11 10 9 9 10 9 9 9 8 8 8 7 7 6
4 7 4 3 2 2 2 2 3 8 11 13 13 9 10 14 18 20 21 22 22 24 22 19 18 16 15 9 8 9 11 12 11 11 10 10 9 10 10 10 9 9 7 7 6 6 6 5 4
4 5 4 5 1 1 4 6 7 14 12 13 13 13 12 10 19 19 19 20 26 27 27 24 22 20 19 15 12 10 11 11 11 10 8 9 9 10 10 9 10 9 8 9 8 7 6 4 3
5 8 4 13 7 3 8 9 10 14 14 13 12 12 12 8 11 14 15 20 26 24 27 27 22 18 14 9 7 9 11 11 11 8 8 9 11 11 11 11 10 9 9 8 7 5 4 2 2
6 2 2 11 9 2 10 4 14 14 14 14 13 13 12 11 12 17 20 23 26 26 27 26 19 14 11 12 12 11 12 12 10 9 9 10 11 12 11 10 10 11 9 7 6 5 1 2 1
4 2 6 6 13 11 8 6 14 16 15 14 13 15 15 16 17 17 22 24 23 23 23 22 18 14 12 12 10 12 11 11 9 10 11 13 11 12 11 11 12 12 10 8 6 5 3 2 1
3 3 4 2 5 8 11 11 11 16 15 16 15 15 16 17 17 19 21 25 24 22 21 21 21 19 17 16 15 14 14 12 10 10 11 13 12 14 13 13 14 11 10 8 7 6 4 3 3
6 6 5 3 1 7 5 8 8 16 19 17 17 18 18 17 18 20 22 25 28 27 25 24 23 21 19 15 14 13 13 12 12 11 11 12 13 15 14 14 14 11 10 10 8 6 4 3 4
9 9 4 7 2 5 5 7 9 12 14 14 16 15 17 19 20 21 23 26 27 28 27 26 24 21 20 18 15 13 10 7 10 11 11 12 14 15 14 14 13 13 12 10 9 9 8 5 6
10 6 3 5 6 4 3 4 7 10 15 20 20 20 20 20 20 21 22 25 27 27 26 26 24 22 20 20 18 19 18 14 11 12 11 11 12 14 14 14 14 14 10 10 10 9 9 10 8
7 4 1 3 5 5 5 9 9 6 11 19 24 24 24 23 24 25 26 26 23 25 26 25 25 25 22 21 20 18 19 14 12 15 15 15 14 14 15 15 14 13 13 11 10 10 10 8 7
8 6 2 3 4 9 5 6 4 9 7 5 14 24 25 26 25 25 23 22 24 25 26 26 27 22 18 15 13 17 19 17 15 18 19 17 16 15 15 14 14 13 11 12 11 11 9 9 8
10 10 10 9 8 10 3 7 13 4 4 8 10 11 23 27 25 25 24 25 25 27 26 26 25 25 23 23 23 25 22 20 21 21 20 19 17 15 16 16 16 14 14 12 13 13 12 12 9
16 14 8 5 8 5 3 6 2 2 6 10 12 13 10 16 24 27 28 26 25 25 26 26 26 24 26 24 26 23 21 19 20 23 18 19 19 17 17 19 17 16 12 13 12 12 8 10 9
9 13 3 2 1 6 7 7 13 3 3 3 4 4 10 13 16 21 25 26 23 23 26 27 24 25 25 26 23 20 19 22 21 19 17 15 15 16 18 21 18 16 15 14 13 10 12 10 10
6 12 7 6 8 10 7 8 6 5 2 0 2 2 2 4 6 10 12 14 19 21 21 21 24 26 26 21 15 16 19 20 20 19 20 20 18 20 19 21 20 17 15 14 13 9 11 9 9
8 9 4 3 4 7 9 7 4 7 4 5 2 4 5 3 1 4 7 9 13 15 17 19 21 22 23 26 19 17 18 18 17 18 19 19 20 20 19 22 21 18 16 15 14 12 6 9 8
10 12 16 13 9 5 5 12 8 9 6 8 6 4 5 6 3 1 5 8 10 13 14 16 16 19 19 20 18 18 14 13 17 18 16 16 17 19 22 22 20 13 14 14 13 9 5 8 10
Wind_Direction
173 214 242 230 236 234 242 224 300 229 229 46 283 228 209 19 247 230 343 136 165 155 158 154 142 139 135 131 130 131 133 132 131 130 129 124 123 121 120 118 116 114 116 120 116 114 111 106 100
165 220 225 256 251 220 220 131 208 5 13 94 319 146 173 126 86 114 102 237 162 158 156 158 141 136 134 133 133 134 132 131 131 128 127 124 123 123 119 113 109 108 108 111 115 118 114 106 97
229 253 261 255 250 243 320 145 305 295 296 210 208 35 57 349 71 111 75 172 167 158 154 150 141 137 136 134 133 133 132 135 133 132 128 126 125 124 118 111 107 106 107 110 114 116 113 107 100
239 198 218 251 242 249 285 15 340 259 188 218 176 111 91 267 330 13 142 139 166 158 158 139 143 140 136 134 136 136 136 136 133 139 127 128 125 124 117 110 107 103 107 114 115 114 110 103 100
224 246 258 252 256 256 281 313 324 220 103 128 254 120 106 21 36 59 148 156 156 158 148 153 143 139 138 140 139 138 139 134 135 137 128 125 126 118 112 106 104 103 105 109 113 113 108 103 102
230 275 247 247 176 282 353 341 299 284 171 104 159 107 83 60 73 45 81 95 157 151 155 146 140 136 135 133 137 134 138 130 137 130 129 127 118 105 103 101 102 103 102 97 103 107 102 97 93
284 275 331 290 54 93 18 330 302 273 209 100 57 93 86 58 75 81 73 69 91 122 122 118 116 126 120 107 119 121 128 126 136 125 127 121 110 110 106 105 103 105 104 96 94 101 98 101 94
274 273 242 68 12 49 20 34 313 321 68 87 34 176 172 126 107 92 85 76 75 100 119 119 112 113 108 114 98 105 110 119 121 119 119 114 108 111 112 113 103 99 105 100 97 101 103 98 94
251 250 169 24 345 4 28 279 127 115 152 101 12 27 116 125 118 97 90 76 85 81 110 125 121 121 123 136 131 116 106 110 116 121 132 138 133 130 140 97 102 102 103 102 105 109 111 107 94
248 264 76 351 318 326 329 293 165 220 178 110 94 109 123 135 127 112 108 102 96 98 101 108 116 131 108 96 110 117 129 140 131 146 150 132 134 122 117 109 105 106 101 101 109 111 118 157 108
219 304 353 297 320 297 314 248 154 246 234 260 155 130 131 132 117 110 108 109 110 109 113 117 122 122 118 129 139 166 151 131 137 131 137 134 132 138 135 134 132 121 124 132 128 125 96 82 79
268 258 306 314 323 303 309 132 120 40 359 71 135 134 137 132 134 122 119 119 121 117 121 120 116 134 147 158 159 137 132 139 142 137 144 159 150 152 147 147 137 142 151 134 127 108 103 95 87
259 305 319 303 277 279 92 65 49 71 92 103 123 146 139 148 116 113 118 128 125 119 123 125 119 133 127 101 99 102 111 158 163 167 180 169 165 155 151 141 144 140 145 133 124 123 113 105 82
338 312 17 58 134 133 196 145 211 112 124 127 132 144 160 144 141 139 142 144 137 132 135 133 133 118 110 121 145 169 185 181 174 180 173 176 172 158 153 150 146 142 146 127 130 118 109 80 73
276 206 71 58 5 262 216 176 107 135 134 137 134 144 155 153 156 157 166 164 154 155 153 165 160 147 170 185 193 182 179 180 184 180 182 183 168 166 159 151 156 151 126 124 127 127 107 92 75
233 237 112 268 251 207 225 106 151 153 147 145 146 148 152 174 158 156 163 157 165 166 164 171 175 184 184 192 197 193 188 189 186 182 179 176 173 164 164 162 155 142 152 153 134 114 101 76 32
196 216 300 158 233 239 232 76 161 171 164 153 160 164 167 174 173 160 163 157 157 161 167 180 193 198 190 192 189 191 186 195 186 180 181 181 174 168 178 156 149 163 156 143 131 116 84 87 43
148 187 195 158 193 231 236 261 164 177 187 177 180 186 185 185 184 171 173 177 177 176 184 192 201 206 205 200 193 193 191 190 181 187 188 188 178 174 175 159 159 168 157 147 138 134 104 71 300
231 231 297 45 143 260 256 262 190 186 198 199 199 200 199 198 192 184 186 183 191 194 199 203 201 207 203 201 198 192 200 197 194 197 189 191 185 180 177 168 167 170 161 149 152 147 144 165 231
219 232 222 256 148 233 260 258 207 194 205 206 205 204 213 207 199 196 196 196 199 201 201 205 207 211 208 205 205 207 208 206 203 200 192 196 189 186 183 176 170 172 155 164 162 162 166 226 237
217 252 235 290 191 235 250 224 206 212 215 213 218 217 209 207 204 201 204 205 205 208 207 211 213 211 209 210 200 198 188 194 196 197 195 195 192 184 186 183 174 171 175 173 171 178 201 221 215
218 196 271 268 227 245 230 222 193 201 215 219 222 217 217 212 211 208 204 209 209 211 212 214 217 217 210 207 206 205 207 209 209 205 198 185 188 193 193 185 181 174 171 177 181 186 205 209 225
227 168 259 306 245 271 204 270 123 195 222 219 218 217 218 216 212 211 209 208 208 206 209 211 215 216 210 207 213 210 221 223 199 202 192 189 187 197 197 187 180 179 180 180 190 196 212 223 234
148 182 213 211 236 243 219 261 241 185 227 235 217 216 219 220 222 222 219 211 206 204 205 205 209 209 215 204 205 225 217 215 201 203 196 192 190 192 197 189 188 188 183 184 197 198 200 226 233
207 212 209 221 203 242 145 234 260 245 236 261 269 246 217 218 219 224 220 215 211 204 202 204 201 191 196 186 197 215 218 219 205 208 199 192 181 184 193 194 193 192 190 192 191 195 210 211 215
209 220 221 220 217 202 161 241 234 6 293 283 271 256 247 226 221 225 223 219 217 212 206 207 200 192 172 183 210 211 213 215 212 215 200 188 186 190 187 193 196 197 182 192 191 207 215 216 217
182 220 254 201 23 259 244 238 258 205 225 263 321 231 222 230 228 229 229 223 217 214 211 208 205 201 190 190 200 203 209 212 216 209 194 188 186 196 196 196 195 186 193 197 196 200 218 220 224
254 146 186 208 226 239 201 252 252 236 174 41 327 51 144 188 217 224 224 225 220 217 211 206 206 207 193 199 205 202 209 214 217 208 202 194 195 205 195 197 196 186 191 191 202 218 211 226 232
182 204 226 259 248 249 264 256 210 248 257 280 280 297 318 340 147 187 189 186 199 203 204 201 207 207 201 204 207 214 221 219 219 216 211 199 196 200 195 196 197 189 194 189 189 214 222 234 248
247 236 217 229 219 233 265 274 232 247 273 262 252 253 285 295 308 174 158 162 172 185 194 196 200 206 208 209 212 218 220 217 212 212 207 203 204 204 202 201 198 181 187 189 203 200 199 254 272